EHI
0 0 0 0 0 0 0 0 0 0 0 0 0 0 0 0 1 1 3 5 4 2 1 2 4 4 2 2 2 2 1 2 3 3 3 3 2 0 0 0 0 0 0 0
0 0 0 0 0 0 0 0 0 0 0 0 0 0 0 0 1 1 2 4 4 2 1 4 6 5 3 3 2 2 1 2 3 3 3 3 2 1 0 0 0 0 0 0
0 0 0 0 0 0 0 0 0 0 0 0 0 0 0 0 1 2 2 3 3 2 3 6 8 7 6 5 3 3 3 2 2 3 3 3 3 2 2 1 1 0 0 0
0 0 0 0 0 0 0 0 0 0 0 0 0 0 0 1 2 2 2 1 2 3 5 9 10 9 8 7 5 4 3 2 2 4 5 4 4 3 3 2 1 0 0 0
0 0 0 0 0 0 0 0 0 0 0 0 0 0 1 2 2 1 1 0 1 4 7 10 11 11 10 9 8 6 4 3 4 5 7 6 5 4 3 2 1 0 0 0
0 0 0 0 0 0 0 0 0 0 0 0 0 0 0 1 1 0 0 0 1 3 6 9 11 12 12 12 11 9 6 4 4 6 8 8 7 5 4 3 1 0 1 1
0 0 0 0 0 0 0 0 0 0 0 0 0 0 0 1 1 1 1 1 1 3 6 8 11 11 11 12 12 9 7 5 5 7 9 9 7 5 4 3 1 1 2 2
0 0 0 0 0 0 0 0 0 0 0 0 0 0 0 1 2 3 2 2 3 5 7 8 9 9 9 10 9 7 7 6 6 7 9 9 7 4 2 2 2 2 3 3
0 0 0 0 0 0 0 0 0 0 0 0 0 0 0 1 3 3 3 3 4 6 7 7 6 5 6 6 6 5 5 6 5 5 6 7 7 5 3 2 3 3 3 2
0 0 0 0 0 0 0 0 0 0 0 0 0 0 1 2 3 3 3 3 3 4 5 5 5 3 2 3 3 4 4 4 4 3 3 4 5 6 5 4 4 4 3 1
0 0 0 0 0 0 0 0 0 0 0 0 0 0 1 2 3 3 3 3 2 1 2 4 4 2 0 1 2 3 3 3 3 3 1 1 2 4 5 5 5 4 3 2
0 0 0 0 0 0 0 0 0 0 0 0 0 0 1 2 3 3 2 2 2 1 1 2 2 1 0 0 1 1 2 3 3 2 1 0 0 1 3 4 4 4 3 3
0 0 0 0 0 0 0 0 0 0 0 0 0 0 0 1 2 3 2 1 2 2 1 0 0 0 0 0 0 1 2 2 2 2 1 0 0 1 2 2 2 2 3 3
0 0 0 0 0 0 0 0 0 0 0 0 0 0 0 0 1 2 1 1 2 2 1 0 0 0 0 1 1 1 1 1 1 1 0 0 0 0 1 1 1 1 2 3
0 0 0 0 0 0 0 0 0 0 0 0 0 0 0 0 0 0 0 0 1 2 1 0 0 0 1 1 1 1 0 0 0 0 0 0 0 0 0 0 0 0 0 1
0 0 0 0 0 0 0 0 0 0 0 0 0 0 0 0 0 0 0 0 0 1 1 1 0 0 1 1 1 0 0 0 0 0 0 0 0 0 0 0 0 0 0 0
0 0 0 0 0 0 0 0 0 0 0 0 0 0 0 0 0 0 0 0 0 0 1 1 0 0 0 0 0 0 0 0 0 0 0 0 0 0 0 0 0 0 0 0
0 0 0 0 0 0 0 0 0 0 0 0 0 0 0 0 0 0 0 0 0 0 0 0 0 0 0 0 0 0 0 0 0 0 0 0 0 0 0 0 0 0 0 0
0 0 0 0 0 0 0 0 0 0 0 0 0 0 0 0 0 0 0 0 0 0 0 0 0 0 0 0 0 0 0 0 0 0 0 0 1 0 0 0 0 0 0 0
0 0 0 0 0 0 0 0 0 0 0 0 0 0 0 0 0 0 0 0 0 0 0 0 0 0 0 0 0 0 0 0 0 0 0 0 0 0 0 0 0 0 0 0
0 0 0 0 0 0 0 0 0 0 0 0 0 0 0 0 0 0 0 0 0 0 0 0 0 0 0 0 0 0 0 0 0 0 0 0 0 0 0 0 0 0 0 0
0 0 0 0 0 0 0 0 0 0 0 0 0 0 0 0 0 0 0 0 0 0 0 0 0 0 0 0 0 0 0 0 0 0 0 0 0 0 0 0 0 0 0 0
0 0 0 0 0 0 0 0 0 0 0 0 0 0 0 0 0 0 0 0 0 0 0 0 0 0 0 0 0 0 0 0 0 0 0 0 0 0 0 0 0 0 0 0
0 0 0 0 0 0 0 0 0 0 0 0 0 0 0 0 0 0 0 0 0 0 0 0 0 0 0 0 0 0 0 0 0 0 0 0 0 0 0 0 0 0 0 0
0 0 0 0 0 0 0 0 0 0 0 0 0 0 0 0 0 0 0 0 0 0 0 0 0 0 0 0 0 0 0 0 0 0 0 0 0 0 0 0 0 0 0 0
0 0 0 0 0 0 0 0 0 0 0 0 0 0 0 0 0 0 0 0 0 0 0 0 0 0 0 0 0 0 0 0 0 0 0 0 0 0 0 0 0 0 0 0
Wind_Speed
8 7 7 7 8 8 7 7 7 3 3 4 4 4 3 3 3 3 3 3 3 4 5 5 5 5 3 3 3 5 5 3 3 2 2 2 2 2 2 2 3 3 3 3
7 9 7 5 5 7 8 8 8 4 2 4 4 4 4 4 4 3 3 4 4 4 5 5 5 5 4 3 2 4 4 3 4 2 2 2 2 1 2 2 2 1 2 2
9 5 3 5 6 8 9 8 7 6 5 6 6 6 4 4 4 2 2 2 3 4 5 6 5 4 3 3 2 3 4 3 3 3 2 2 2 2 2 1 1 1 2 2
7 5 4 6 7 8 8 6 6 6 7 5 5 5 5 6 5 4 3 2 2 3 4 6 5 4 3 3 2 2 3 3 3 3 2 2 2 1 1 1 1 1 2 2
5 4 5 6 5 6 6 6 7 8 9 10 9 7 3 5 5 4 3 3 3 3 4 5 5 4 4 3 2 2 3 3 3 3 3 2 2 1 1 1 2 2 2 2
7 5 4 4 5 5 6 7 9 9 7 9 10 7 1 3 3 4 4 4 4 4 5 5 5 4 4 3 3 2 2 2 2 2 2 2 2 2 2 1 1 2 1 1
8 7 4 3 6 5 6 5 4 4 5 5 4 3 2 4 5 5 4 4 4 4 5 5 5 4 4 3 2 2 2 2 2 1 2 2 2 2 2 2 2 1 1 1
6 4 4 3 4 4 6 7 5 4 5 3 2 1 4 6 7 6 6 5 5 5 4 4 5 4 4 3 2 2 2 1 2 2 1 1 1 1 1 2 2 2 2 2
5 2 4 3 3 6 6 6 6 8 10 8 3 3 4 6 7 7 6 5 4 5 4 4 4 3 4 3 2 2 2 1 1 1 1 0 0 1 1 2 2 2 2 2
7 6 3 2 4 6 7 7 5 5 5 6 4 1 3 4 5 6 5 4 4 4 3 4 3 3 3 2 2 2 1 1 1 1 1 0 1 0 1 1 1 2 2 2
8 7 4 5 6 5 5 7 6 5 6 5 4 1 4 6 5 5 4 4 3 4 2 2 3 2 3 2 2 2 1 1 1 1 0 0 0 0 0 1 1 1 1 2
5 6 7 5 3 3 5 6 6 5 6 6 5 0 4 6 5 5 4 4 3 3 2 2 3 2 2 2 2 2 1 2 1 1 1 0 0 0 0 0 0 1 1 1
5 5 6 4 3 4 5 5 6 7 6 6 6 1 3 3 5 5 4 3 3 2 2 2 2 2 2 1 1 1 2 2 1 1 0 0 0 1 1 1 1 1 1 1
4 7 7 7 5 4 5 7 7 8 6 7 7 4 3 0 2 3 3 2 2 1 2 1 1 1 1 1 0 1 2 2 1 1 1 1 1 1 1 1 1 1 1 1
5 8 9 8 7 8 9 9 8 9 10 9 7 6 4 1 1 2 2 2 1 1 1 1 0 0 1 1 0 1 1 1 1 1 0 1 1 1 1 1 1 0 1 1
4 6 8 9 8 8 10 10 10 9 9 9 8 6 3 1 0 1 2 1 1 0 1 1 1 1 1 0 1 1 0 0 1 1 0 1 1 1 1 1 1 1 1 1
5 7 8 8 7 8 9 7 7 7 6 6 7 4 2 1 1 0 1 2 0 1 1 1 2 2 1 2 0 0 1 0 0 0 1 1 1 2 2 2 1 1 1 0
8 7 5 6 7 8 2 2 2 4 5 4 3 1 2 2 2 2 1 1 1 2 2 2 2 2 2 1 1 1 1 0 1 1 1 1 1 1 2 2 1 1 1 1
6 6 5 5 7 8 3 1 2 3 5 3 2 2 2 2 2 1 2 2 1 2 2 2 2 2 1 1 1 1 0 0 0 0 1 0 0 1 1 2 2 2 1 1
4 5 6 6 6 6 0 3 4 4 3 2 2 2 1 2 3 1 2 2 2 2 2 3 3 2 1 1 1 1 1 1 1 1 1 1 1 1 2 2 2 2 2 2
5 5 6 8 8 4 1 1 2 3 2 4 4 3 3 3 2 1 2 2 2 1 2 2 3 2 2 2 2 2 1 1 1 1 1 1 1 2 2 2 2 2 2 2
4 4 6 6 7 4 2 1 2 2 3 3 4 4 3 3 3 1 2 2 2 2 2 3 3 2 2 2 2 2 1 2 2 1 1 1 2 2 2 1 1 2 2 2
4 3 2 3 2 1 1 3 3 3 3 4 4 4 3 3 3 2 2 1 2 2 2 3 2 2 2 2 2 2 2 2 2 2 1 1 2 1 1 1 2 2 1 2
3 2 4 5 3 2 3 3 3 3 4 4 4 4 4 4 4 3 3 2 1 2 2 2 2 2 2 2 2 1 1 2 2 2 2 2 2 2 1 1 1 1 2 2
4 3 5 7 5 4 4 3 4 4 4 4 4 4 4 4 4 3 3 3 2 2 2 2 2 2 2 2 2 2 1 2 2 2 2 2 1 1 1 1 1 2 2 2
6 6 6 5 5 4 3 3 4 4 5 4 4 5 4 4 4 4 3 3 2 2 2 3 3 2 2 2 2 1 1 2 3 3 2 1 1 1 1 1 2 3 3 4
Wind_Direction
223 235 240 241 247 281 307 300 292 278 262 258 244 231 205 197 198 190 182 157 147 140 138 129 115 107 101 86 98 106 108 106 99 87 85 89 79 74 72 77 59 49 56 57
233 238 251 269 283 287 287 286 285 282 282 282 269 242 218 195 200 199 182 169 162 151 140 125 126 124 119 117 121 117 112 107 101 94 98 114 118 110 104 90 90 75 68 67
245 262 262 264 270 271 269 276 286 300 295 275 269 254 209 171 177 176 180 167 154 148 146 139 135 123 120 128 132 125 115 110 111 114 102 93 94 84 84 93 92 97 85 69
256 263 267 267 267 274 278 294 302 299 289 274 250 265 209 182 175 173 167 153 130 130 131 128 130 126 128 133 137 127 124 121 115 120 115 116 118 121 129 131 134 131 120 107
261 260 262 263 279 294 302 317 295 279 276 278 256 256 197 165 171 165 151 143 133 130 126 123 123 126 122 112 110 106 99 103 105 112 122 130 120 134 125 122 131 124 118 119
262 270 270 286 291 283 287 278 268 255 257 262 250 248 159 160 169 151 145 140 135 125 115 116 109 111 107 98 92 91 98 102 105 117 140 138 138 155 141 142 132 119 113 130
237 221 198 250 268 251 257 266 271 241 219 239 233 224 105 96 99 116 125 127 125 122 120 117 113 117 119 112 109 109 110 120 139 164 162 169 179 172 166 160 146 144 152 165
249 222 173 199 260 278 262 257 271 294 295 306 286 205 110 98 88 84 92 100 109 109 109 111 121 124 125 125 127 135 130 140 161 175 187 181 164 170 174 173 157 168 185 187
301 266 159 178 249 274 268 263 280 289 290 288 248 127 116 101 103 90 84 79 92 102 103 104 105 116 124 128 137 148 147 159 158 167 163 182 180 177 197 189 159 166 186 188
296 291 240 190 238 239 267 290 284 272 286 282 277 211 145 138 115 104 90 79 67 67 98 110 111 110 109 123 135 132 144 156 145 162 191 199 198 166 178 151 163 188 194 181
290 280 245 218 234 253 247 259 269 274 268 280 294 29 80 103 101 105 94 80 75 70 39 98 115 121 122 114 117 111 103 86 86 107 22 40 29 190 188 162 209 213 213 189
292 287 268 238 217 265 265 264 271 278 287 293 289 296 79 100 104 104 99 93 95 95 72 65 93 103 108 110 108 116 107 91 85 105 103 177 244 284 256 151 250 263 251 212
330 283 277 231 185 200 237 252 269 280 283 275 276 238 118 101 108 105 100 91 95 89 78 46 77 79 79 77 92 99 113 99 83 75 77 344 281 257 251 218 222 238 256 240
290 267 269 281 304 305 270 264 261 266 269 274 275 273 248 114 98 111 109 92 94 98 97 59 79 95 94 85 40 90 91 108 91 53 13 338 342 323 304 288 249 240 258 261
257 269 275 283 294 298 290 278 266 263 268 273 285 290 282 270 192 139 122 107 94 92 95 86 307 202 142 110 85 60 64 100 115 106 322 331 339 341 341 346 319 350 341 324
243 272 283 281 275 277 279 273 265 261 263 268 274 280 304 314 170 133 122 117 75 353 333 346 329 330 339 189 169 127 108 83 108 137 97 15 351 357 9 7 350 352 352 341
244 260 278 279 284 281 270 264 258 263 267 276 279 289 325 326 346 339 131 133 118 356 8 1 348 330 332 323 2 96 146 41 128 127 54 34 19 3 359 0 354 333 290 290
268 263 269 279 281 262 261 12 336 292 287 291 296 329 10 13 9 17 77 83 40 12 348 345 335 333 344 343 355 358 24 8 345 32 14 34 38 4 358 352 335 318 298 278
255 261 262 261 270 272 258 296 333 308 297 321 322 354 28 25 347 343 43 52 41 21 359 340 336 329 348 354 346 330 327 288 267 247 300 331 339 317 304 301 297 306 305 287
239 248 247 254 261 266 102 65 19 312 276 48 355 333 334 309 287 303 37 25 24 13 359 342 335 328 342 348 339 314 275 271 279 269 274 280 267 262 265 274 285 289 282 271
224 236 240 252 258 263 74 52 314 281 1 27 11 1 329 313 325 11 8 14 9 350 350 340 328 331 345 347 330 306 325 323 319 335 323 320 300 275 266 267 285 282 271 266
235 237 234 242 249 245 89 345 333 6 6 3 6 3 349 347 348 358 8 3 352 346 342 339 329 334 346 338 318 309 316 335 338 339 320 317 308 301 310 292 284 288 275 259
242 264 283 265 261 0 332 358 357 347 340 351 350 347 343 327 323 323 313 314 326 320 324 329 317 316 313 314 306 306 329 341 323 300 293 294 303 301 304 297 291 294 282 259
244 266 276 277 255 278 303 313 319 331 319 321 323 321 316 309 305 304 300 283 278 287 294 309 300 296 302 307 304 312 327 322 313 294 282 282 284 299 305 286 274 278 273 271
291 279 267 269 271 279 273 301 323 326 320 307 298 298 297 294 288 286 285 287 274 276 280 286 270 275 289 297 297 312 318 306 300 292 277 284 286 284 301 305 296 278 264 255
257 254 257 268 288 290 295 302 302 297 301 301 297 293 291 286 278 277 274 276 277 274 278 278 267 273 278 282 292 309 320 309 304 306 305 292 287 282 274 274 305 304 269 270